Regional Weather Roundup
Issued by NWS

Home | Current Version | Previous Version | Graphics & Text | Print | Product List | Glossary On
Versions: 1 2 3 4 5 6 7 8 9 10 11 12 13 14 15 16 17 18 19 20 21 22 23 24 25 26 27 28 29 30 31 32 33 34 35 36 37 38 39 40 41 42 43 44 45 46 47 48 49 50
000
ASUS45 KTFX 200219
RWRMT
MONTANA HOURLY WEATHER ROUNDUP
NATIONAL WEATHER SERVICE GREAT FALLS MT
719 PM MST FRI DEC 19 2014

NOTE: "FAIR" INDICATES FEW OR NO CLOUDS BELOW 12000 FEET WITH NO
SIGNIFICANT WEATHER AND/OR OBSTRUCTIONS TO VISIBILITY.

* THESE STATIONS ARE NOT UNDER NWS QUALITY CONTROL. THEY DO NOT
   REPORT WEATHER SUCH AS PRECIPITATION OR FOG.

MTZ001>007-043-200300-
WEST OF THE DIVIDE
CITY           SKY/WX    TMP DP  RH WIND       PRES   REMARKS
KALISPELL      CLOUDY    36  34  92 SE10      29.90R WCI  29
MISSOULA       FOG       32  32 100 CALM      29.97R VSB 1 3/4
BUTTE          MOCLDY    30  27  89 N3        29.92R
MULLAN PASS    LGT SNOW  28  27  96 VRB3      29.88S VSB 3/4
* ESSEX        N/A       33  32  96 N/A        N/A
* EUREKA APT   CLOUDY    41  32  70 SE12      29.88S
* HAMILTON APT MOCLDY    36  32  85 SE8       29.96R WCI  30
* LIBBY APT    MOCLDY   N/A N/A N/A CALM      29.93S VSB M1/4
* LINCOLN      N/A       33  32  96 W3G9       N/A
* LOOKOUT PASS N/A       31  31 100 NW2        N/A
* POLSON       N/A       32  32 100 E1         N/A
* RONAN APT    MOCLDY    34  34 100 N/A        N/A
* SEELEY LAKE  N/A       30  29  96 N2         N/A
* THOMP F APT  CLOUDY    28  27  96 SE5G12     N/A   WCI  22
* YAAK HILL    N/A       37  35  92 N2         N/A
$$

MTZ008-052>055-200300-
SOUTHWEST MONTANA
CITY           SKY/WX    TMP DP  RH WIND       PRES   REMARKS
BOZEMAN        CLOUDY    36  30  79 E10       29.93R WCI  29
DILLON         CLOUDY    32  25  75 SW5       29.94R WCI  27
* W YELLOWSTON MOCLDY    28  26  92 SW5G13     N/A   WCI  22
* THREE FORKS  CLOUDY    39  39 100 SW11G20    N/A   WCI  32
* BOULDER HILL N/A       32  26  79 SW14       N/A   WCI  22
* MONIDA PASS  N/A       27  27 100 SE16       N/A   WCI  15
* RAYNOLDS PAS N/A       27  16  63 S6         N/A   WCI  20
* WHITEHALL    N/A       38  29  70 W10G23     N/A   WCI  31
* WISE RIVER   N/A       30  29  96 SE4        N/A
$$

MTZ009>010-012-014-046-048-049-054-200300-
EAST SLOPES AND CENTRAL MONTANA
CITY           SKY/WX    TMP DP  RH WIND       PRES   REMARKS
CUT BANK       CLOUDY    37  30  76 W14       29.77R WCI  28
GREAT FALLS    CLOUDY    41  30  65 SW12      29.80S
HELENA         CLOUDY    34  28  79 CALM      29.88S
MALMSTROM AFB  MOCLDY    37  30  76 SW12      29.82R WCI  29
* CONRAD       CLOUDY    43  32  65 W10G16     N/A
* DEARBORN     N/A       45  31  58 S6G14      N/A
* EAST GLACIER N/A       33  28  82 SW11G16    N/A   WCI  24
* MONARCH      N/A       37  20  50 SW16G26    N/A   WCI  28
* PENDROY      N/A       40  27  60 NW7        N/A   WCI  35
* ROGERS PASS  N/A       32  29  89 SE14G24    N/A   WCI  22
* SWEET GRASS  N/A       38  31  76 W22G29     N/A   WCI  27
* WHITE SULPH  N/A       33  29  85 S12G22     N/A   WCI  24
$$

MTZ011-013-016-021-035-040-045-047-050-051-200300-
NORTH CENTRAL MONTANA
CITY           SKY/WX    TMP DP  RH WIND       PRES   REMARKS
HAVRE          CLOUDY    25  23  92 CALM      29.78S
LEWISTOWN      CLOUDY    41  28  60 SW15      29.82S
* N BAR RANCH  CLOUDY    30  25  82 CALM      29.83S
* CHINOOK      PTCLDY    28  27  96 E7        29.79S WCI  21
* CHESTER      N/A       29  26  89 NW3        N/A
* DENTON       N/A       35  30  82 SW5        N/A   WCI  31
* GEYSER       N/A       41  25  53 SW13       N/A
* JUDITH GAP   N/A       40  25  55 W11        N/A   WCI  33
* LOMA         N/A       36  29  76 N2         N/A
$$

MTZ017>020-022>027-061-062-200300-
NORTHEAST MONTANA
CITY           SKY/WX    TMP DP  RH WIND       PRES   REMARKS
GLASGOW        PTCLDY    28  25  89 E10       29.84S WCI  19
GLENDIVE       CLEAR     27  21  78 CALM      29.89S
JORDAN         PTCLDY    27  25  92 CALM      29.84F
SIDNEY         CLEAR     25  23  92 NW3       29.91S
WOLF POINT     PTCLDY    25  19  78 NE5       29.87F WCI  19
* BEAVER HILL  N/A       29  22  75 SE6        N/A   WCI  23
* CIRCLE       N/A       33  27  79 N/A        N/A
* LINDSAY DVD  N/A       29  24  82 N/A        N/A
* NAVAJO       N/A       24  24 100 S2         N/A
* PLENTYWOOD A CLEAR     21  19  92 CALM      29.89R
* POPLAR APT   CLEAR     27  25  92 CALM      29.88S
* SACO         N/A       31  27  85 SE4        N/A
$$

MTZ028>042-056>058-200300-
SOUTHCENTRAL AND SOUTHEAST MONTANA
CITY           SKY/WX    TMP DP  RH WIND       PRES   REMARKS
BAKER          CLEAR     27  21  78 CALM      29.89F
BILLINGS       PTCLDY    36  19  50 SW22      29.87S WCI  25
LIVINGSTON     CLOUDY    43  23  45 W31G37    29.88R
MILES CITY     PTCLDY    32  23  69 SE6       29.87F WCI  26
* FORSYTH APT  MOCLDY    32  21  64 CALM      29.87S
* LAUREL APT   PTCLDY    34  12  40 N/A        N/A
* ROUNDUP APT  MOCLDY    39  19  45 S8         N/A   WCI  33
* ALZADA       N/A       32  22  67 N/A        N/A
* HYSHAM       N/A       37  18  46 W4         N/A
* LAME DEER    N/A       34  21  59 SW6        N/A   WCI  29
* REED POINT   N/A       31  23  72 N/A        N/A
* ROSCOE HILL  N/A       41  12  30 SE1G9      N/A
$$

REGIONAL REPORTS...DAKOTAS
CITY           SKY/WX    TMP DP  RH WIND       PRES   REMARKS
WILLISTON      FOG       21  21 100 N3        29.92S VSB M1/4
DICKINSON      CLEAR     28  23  81 SE5       29.88S WCI  22
BEACH          CLEAR     25  23  92 S5        29.90S WCI  19
CROSBY         FOG       23  23 100 SE5       29.93R VSB M1/4 WCI  16
TIOGA          FOG       18  18 100 S3        29.94R VSB M1/4
WATFORD CITY   CLEAR     19  19 100 CALM      29.89R
BISMARCK       PTCLDY    21  19  92 NE6       29.95S WCI  13
GRAND FORKS    FOG       28  27  96 SE7       30.00F WCI  21
FARGO          FOG       32  28  85 S13       30.02F WCI  22
BUFFALO SD     CLEAR     36  23  59 W3        29.84S
RAPID CITY     CLEAR     28  21  75 CALM      29.93S
$$

REGIONAL REPORTS...WYOMING/IDAHO/WASHINGTON
CITY           SKY/WX    TMP DP  RH WIND       PRES   REMARKS
GILLETTE       MOCLDY    34  19  54 SE5       29.89F WCI  29
SHERIDAN       MOCLDY    28  19  69 CALM      29.86S
CODY           CLOUDY    34  28  79 NW3       29.89F
YELLOWSTONE LA PTCLDY    27  21  78 CALM      30.01F
SALMON         CLOUDY    32  28  85 CALM      29.99R
MULLAN PASS    LGT SNOW  28  27  96 VRB3      29.88S VSB 3/4
SAND POINT     CLOUDY    37  37 100 S3        29.95R
SPOKANE        CLOUDY    39  36  89 SW10      29.96R WCI  32
$$

REGIONAL REPORTS...ALBERTA
CITY           SKY/WX    TMP DP  RH WIND       PRES   REMARKS
CALGARY        CLOUDY    41  25  53 W14G22    29.63S
LETHBRIDGE     CLOUDY    37  32  82 SW18      29.71S WCI  27
MEDICINE HAT   CLOUDY    36  32  85 SW10      29.70S WCI  29
EDMONTON       CLOUDY    21  18  88 W5        29.68F WCI  14
WATERTON GATE  N/A       36  30  79 SW12G18    N/A   WCI  28
CARDSTON       N/A       37  30  76 SW8        N/A   WCI  31
MILK RIVER     N/A       39  30  70 W15G21     N/A   WCI  31
$$

REGIONAL REPORTS...SASKATCHEWAN
CITY           SKY/WX    TMP DP  RH WIND       PRES   REMARKS
SWIFT CURRENT  CLOUDY    27  25  92 S13       29.77S WCI  16
REGINA         FOG       16  14  92 SE9       29.91S VSB 1/2  WCI   5
VAL MARIE      N/A       14  12  92 E2         N/A
ASSINIBOIA     N/A       14  12  92 SE6        N/A   WCI   5
CORONACH       N/A       18  16  92 SE2        N/A

$$



USA.gov is the U.S. government's official web portal to all federal, state and local government web resources and services.